Tetonia, ID

3:05 PM MST on February 06, 2016 (GMT -0700)
Driggs

Weather History for KDIJ - March, 2014

Change the Weather History Date:

Wednesday, March 12, 2014

  Actual Average (KRXE) Record (KRXE)
Temperature  
Mean Temperature 22 °F 33 °F  
Max Temperature 38 °F 43 °F 62 °F (2007)
Min Temperature 6 °F 22 °F 6 °F (2009)
Degree Days  
Heating Degree Days 43 32  
Month to date heating degree days 420  
Since 1 July heating degree days 6393  
Cooling Degree Days 0 0  
Month to date cooling degree days 0  
Year to date cooling degree days 0  
Moisture  
Dew Point 14 °F    
Average Humidity 72    
Maximum Humidity 87    
Minimum Humidity 49    
Precipitation  
Precipitation 0.00 in 0.03 in 0.13 in (1984)
Month to date precipitation 0.33  
Year to date precipitation 1.90  
Sea Level Pressure  
Sea Level Pressure 30.41 in    
Wind  
Wind Speed 4 mph (NE)    
Max Wind Speed 9 mph    
Max Gust Speed -    
Visibility 9 miles    
Events      
T = Trace of Precipitation, MM = Missing Value Source: NWS Daily Summary

Daily Weather History Graph

Daily Weather History Graph

Search for Another Location

Airport or City:

Trip Planner

Search our weather history database for the weather conditions in past years. The results will help you decide how hot, cold, wet, or windy it might be!

Date:

Astronomy

Mar. 12, 2014 Rise Set
Actual Time 7:41 AM MDT 7:27 PM MDT
Civil Twilight 7:13 AM MDT 7:55 PM MDT
Nautical Twilight 6:39 AM MDT 8:29 PM MDT
Astronomical Twilight 6:06 AM MDT 9:02 PM MDT
Moon 3:55 PM MDT (3/12) 5:21 AM MDT (3/12)
Length of Visible Light 12h 42m
Length of Day
11h 45m
Waxing Gibbous, 86% of the Moon is Illuminated
Mar 12
Waxing Gibbous
Mar 16
Full
Mar 23
Last Quarter
Mar 30
New
Apr 7
First Quarter

Hourly Weather History & Observations

Time (MDT) Temp. Windchill Dew Point Humidity Pressure Visibility Wind Dir Wind Speed Gust Speed Precip Events Conditions
12:56 AM 20.1 °F - 14.0 °F 77% 30.42 in 10.0 mi Calm Calm - N/A   Clear
1:56 AM 14.0 °F 2.0 °F 9.1 °F 81% 30.45 in 10.0 mi ENE 9.2 mph - N/A   Clear
2:56 AM 16.2 °F 9.0 °F 11.1 °F 81% 30.43 in 10.0 mi South 4.6 mph - N/A   Clear
3:56 AM 8.1 °F - 5.0 °F 87% 30.44 in 10.0 mi Calm Calm - N/A   Clear
4:56 AM 9.1 °F -3.0 °F 5.0 °F 83% 30.46 in 10.0 mi ENE 8.1 mph - N/A   Clear
5:56 AM 12.0 °F 2.7 °F 7.2 °F 81% 30.47 in 10.0 mi East 5.8 mph - N/A   Clear
6:56 AM 15.1 °F 7.7 °F 9.1 °F 77% 30.46 in 9.0 mi West 4.6 mph - N/A   Clear
7:56 AM 6.1 °F -2.8 °F 2.1 °F 84% 30.53 in 9.0 mi NE 4.6 mph - N/A   Clear
8:56 AM 12.0 °F - 5.0 °F 73% 30.51 in 10.0 mi Calm Calm - N/A   Clear
9:56 AM 20.1 °F - 11.1 °F 68% 30.48 in 10.0 mi Calm Calm - N/A   Clear
10:56 AM 28.0 °F 24.2 °F 15.1 °F 58% 30.45 in 8.0 mi ESE 3.5 mph - N/A   Clear
11:56 AM 32.9 °F 29.8 °F 20.1 °F 59% 30.43 in 9.0 mi ENE 3.5 mph - N/A   Clear
12:56 PM 32.0 °F 25.6 °F 20.1 °F 62% 30.42 in 9.0 mi NW 6.9 mph - N/A   Clear
1:56 PM 32.0 °F 28.7 °F 20.1 °F 62% 30.40 in 8.0 mi West 3.5 mph - N/A   Clear
2:56 PM 34.0 °F 28.8 °F 20.1 °F 57% 30.36 in 10.0 mi NW 5.8 mph - N/A   Clear
3:56 PM 34.9 °F 30.8 °F 22.1 °F 60% 30.38 in 8.0 mi NNW 4.6 mph - N/A   Clear
4:56 PM 38.8 °F 36.5 °F 21.0 °F 49% 30.35 in 10.0 mi North 3.5 mph - N/A   Clear
5:56 PM 34.9 °F 29.9 °F 22.1 °F 60% 30.33 in 9.0 mi NW 5.8 mph - N/A   Clear
6:56 PM 31.1 °F - 22.1 °F 69% 30.33 in 8.0 mi Calm Calm - N/A   Clear
7:56 PM 27.1 °F 21.8 °F 19.0 °F 72% 30.38 in 9.0 mi East 4.6 mph - N/A   Clear
8:56 PM 25.2 °F 19.5 °F 18.1 °F 75% 30.36 in 9.0 mi ESE 4.6 mph - N/A   Clear
9:56 PM 16.2 °F 9.0 °F 12.0 °F 84% 30.37 in 10.0 mi ENE 4.6 mph - N/A   Clear
10:56 PM 20.1 °F 13.6 °F 14.0 °F 77% 30.30 in 9.0 mi SSW 4.6 mph - N/A   Clear
11:56 PM 17.1 °F - 12.0 °F 81% 30.28 in 9.0 mi Calm Calm - N/A   Clear